Regional Weather Roundup
Issued by NWS Newport/Morehead, NC

Current Version | Previous Version | Text Only | Print | Product List | Glossary On
Versions: 1 2 3 4 5 6 7 8 9 10 11 12 13 14 15 16 17 18 19 20 21 22 23 24 25 26 27 28 29 30 31 32 33 34 35 36 37 38 39 40 41 42 43 44 45 46 47 48 49 50
614
ASUS42 KMHX 280525
RWRMHX
WEATHER ROUNDUP FOR EASTERN NORTH CAROLINA
NATIONAL WEATHER SERVICE NEWPORT/MOREHEAD CITY NC
100 AM EDT TUE MAR 28 2017

NOTE: "FAIR" INDICATES FEW OR NO CLOUDS BELOW 12,000 FEET
WITH NO SIGNIFICANT WEATHER AND/OR OBSTRUCTIONS TO VISIBILITY

NCZ015>017-031-032-045>047-102-103-280600-
NORTH COAST

CITY           SKY/WX    TMP DP  RH WIND       PRES   REMARKS
EDENTON        CLOUDY    62  55  78 CALM      30.01S
ELIZABETH CITY MOCLDY    62  54  74 S9        30.00F
KITTY HAWK     NOT AVBL
MANTEO         CLEAR     60  56  89 SW7       30.02F

$$

NCZ045>047-081-094-103-104-280600-
CENTRAL COAST

CITY           SKY/WX    TMP DP  RH WIND       PRES   REMARKS
FRISCO         CLEAR     68  59  73 SW9       30.02F HAZE

$$

NCZ095-097-098-100-101-280600-
SOUTHERN COAST

CITY           SKY/WX    TMP DP  RH WIND       PRES   REMARKS
BEAUFORT       PTCLDY    65  59  81 S8        30.02F
CEDAR ISLAND   NOT AVBL
JACKSONVILLE   PTCLDY    63  58  83 S6        30.01F
PINEY ISLAND   CLEAR    N/A N/A N/A S3        30.01F
WILMINGTON     CLOUDY    64  58  80 S8        30.02F


$$

NCZ011>013-027>030-043-044-078>080-089-090>093-098-280600-
COASTAL PLAIN

CITY           SKY/WX    TMP DP  RH WIND       PRES   REMARKS
AHOSKIE          N/A     63  54  72 S5        29.99S
CLINTON        PTCLDY    64  58  82 S5        30.01S
ELIZABETHTOWN  CLOUDY    65  58  78 S7        30.01F
GOLDSBORO      CLOUDY    65  59  80 SW7       29.99F
GREENVILLE     CLOUDY    64  55  72 SW9       30.01F
HAVELOCK       CLEAR     59  55  87 S6        30.03F
KENANSVILLE    CLOUDY    63  55  77 SW3       30.01F
KINSTON        CLOUDY    65  56  71 S7        30.00F
NEW BERN       PTCLDY    60  58  92 S6        30.02F
RICHLANDS      MOCLDY    62  57  83 SW5       30.03S
ROCKY MOUNT    MOCLDY    64  56  75 S6        29.99F
WASHINGTON     PTCLDY    63  55  77 S3        30.01F
WHITEVILLE     NOT AVBL

$$

AMZ130-135-150-152-154-156-158-170-250-252-270-ANZ085-086-088-633-658-670-280600-
MARINE OBSERVATIONS

STATION/POSITION TIME  TEMP    WIND        PRES    WAVE   SWELL
                       AIR SEA DIR/SP/G            HT/PER HT/PER
                 (UTC) (F)     (DEG/KT/KT) (MB)    (FT/S) (FT/S)
CHESAPEAKE LIGHT NOT AVBL
64 E VA BEACH    0450   55 49  200/ 10/ 12 1015.8    4/10   3/10
DUCK             0500   62 49  200/  8/ 11 1015.5
2 E DUCK         0500      50                N/A     3/11   2/11
OREGON INLET     0500   60 61  210/ 10/ 11 1016.3
13E OREGON INLT  0448      53                N/A     4/ 9   3/ 9
HATTERAS CG      0500   66 62  210/  7/  9 1016.2
DIAMOND BUOY     0450   72 74  190/ 17/ 19 1016.6    5/ 9   5/ 9
CAPE LOOKOUT     0500   66     180/  8/  9 1016.5
BEAUFORT LAB     0500   64 60  200/  7/  9 1015.7
30 SE NEW RVR IN 0508   67     200/  8/ 12 1016.9
30 SE NEW RVR IN 0513      64                N/A     4/ 9   2/11
27 SE WRIGHTSVLE 0508   69 66  200/ 10/ 14 1015.9
5 SE WRIGHTSVLE  0508   62 60  220/  6/ 10 1016.6
225 S CAPE HAT   0450   68 72  100/  6/  8 1018.3    5/10   5/10
41 SE CHARLESTON 0450   72 70  180/  8/ 10 1017.3    5/11   5/11

$$




USA.gov is the U.S. government's official web portal to all federal, state and local government web resources and services.